Time,TemperatureF,DewpointF,PressureIn,WindDirection,WindDirectionDegrees,WindSpeedMPH,WindSpeedGustMPH,Humidity,HourlyPrecipIn,Conditions,Clouds,dailyrainin,SoftwareType,DateUTC
2013-06-13 00:02:00,62.0,42.0,-100.00,ESE,110,15.0,20.0,47,0.00,,,-99.99,,2013-06-13 06:02:00,
2013-06-13 00:11:00,62.0,42.0,-100.00,ESE,113,14.0,16.0,48,0.00,,,-99.99,,2013-06-13 06:11:00,
2013-06-13 00:22:00,62.0,42.0,-100.00,ESE,110,16.0,21.0,47,0.00,,,-99.99,,2013-06-13 06:22:00,
2013-06-13 00:33:00,62.0,42.0,-100.00,ESE,110,17.0,22.0,49,0.00,,,-99.99,,2013-06-13 06:33:00,
2013-06-13 00:44:00,62.0,42.0,-100.00,ESE,113,17.0,22.0,48,0.00,,,-99.99,,2013-06-13 06:44:00,
2013-06-13 00:52:00,62.0,42.0,-100.00,East,93,12.0,23.0,49,0.00,,,-99.99,,2013-06-13 06:52:00,
2013-06-13 01:01:00,62.0,43.0,-100.00,ESE,103,16.0,24.0,49,0.00,,,-99.99,,2013-06-13 07:01:00,
2013-06-13 01:11:00,62.0,43.0,-100.00,ESE,110,17.0,21.0,50,0.00,,,-99.99,,2013-06-13 07:11:00,
2013-06-13 01:22:00,61.0,44.0,-100.00,ESE,103,17.0,23.0,53,0.00,,,-99.99,,2013-06-13 07:22:00,
2013-06-13 01:33:00,60.0,44.0,-100.00,ESE,106,17.0,22.0,54,0.00,,,-99.99,,2013-06-13 07:33:00,
2013-06-13 01:42:00,60.0,44.0,-100.00,ESE,106,17.0,22.0,55,0.00,,,-99.99,,2013-06-13 07:42:00,
2013-06-13 01:52:00,60.0,44.0,-100.00,ESE,112,16.0,20.0,55,0.00,,,-99.99,,2013-06-13 07:52:00,
2013-06-13 02:01:00,60.0,41.0,-100.00,ESE,113,14.0,17.0,48,0.00,,,-99.99,,2013-06-13 08:01:00,
2013-06-13 02:11:00,60.0,43.0,-100.00,ESE,104,16.0,21.0,54,0.00,,,-99.99,,2013-06-13 08:11:00,
2013-06-13 02:22:00,59.0,43.0,-100.00,ESE,102,15.0,20.0,54,0.00,,,-99.99,,2013-06-13 08:22:00,
2013-06-13 02:32:00,60.0,43.0,-100.00,ESE,103,17.0,23.0,55,0.00,,,-99.99,,2013-06-13 08:32:00,
2013-06-13 02:42:00,59.0,43.0,-100.00,ESE,109,16.0,23.0,55,0.00,,,-99.99,,2013-06-13 08:42:00,
2013-06-13 02:52:00,59.0,42.0,-100.00,ESE,107,14.0,19.0,52,0.00,,,-99.99,,2013-06-13 08:52:00,
2013-06-13 03:02:00,59.0,41.0,-100.00,ESE,110,16.0,20.0,51,0.00,,,-99.99,,2013-06-13 09:02:00,
2013-06-13 03:11:00,59.0,40.0,-100.00,ESE,117,15.0,19.0,48,0.00,,,-99.99,,2013-06-13 09:11:00,
2013-06-13 03:22:00,60.0,34.0,-100.00,ESE,110,10.0,13.0,36,0.00,,,-99.99,,2013-06-13 09:22:00,
2013-06-13 03:32:00,60.0,33.0,-100.00,ESE,107,10.0,12.0,36,0.00,,,-99.99,,2013-06-13 09:32:00,
2013-06-13 03:42:00,60.0,29.0,-100.00,ESE,109,11.0,12.0,30,0.00,,,-99.99,,2013-06-13 09:42:00,
2013-06-13 03:52:00,62.0,26.0,-100.00,ESE,112,12.0,15.0,25,0.00,,,-99.99,,2013-06-13 09:52:00,
2013-06-13 04:11:00,62.0,25.0,-100.00,SE,130,10.0,12.0,24,0.00,,,-99.99,,2013-06-13 10:11:00,
2013-06-13 04:22:00,62.0,24.0,-100.00,SE,128,10.0,12.0,24,0.00,,,-99.99,,2013-06-13 10:22:00,
2013-06-13 04:33:00,60.0,26.0,-100.00,ESE,114,10.0,12.0,28,0.00,,,-99.99,,2013-06-13 10:33:00,
2013-06-13 04:42:00,60.0,25.0,-100.00,ESE,107,10.0,12.0,26,0.00,,,-99.99,,2013-06-13 10:42:00,
2013-06-13 04:53:00,62.0,24.0,-100.00,SE,128,9.0,12.0,24,0.00,,,-99.99,,2013-06-13 10:53:00,
2013-06-13 05:02:00,60.0,26.0,-100.00,ESE,107,9.0,13.0,27,0.00,,,-99.99,,2013-06-13 11:02:00,
2013-06-13 05:11:00,60.0,25.0,-100.00,ESE,102,9.0,12.0,26,0.00,,,-99.99,,2013-06-13 11:11:00,
2013-06-13 05:23:00,60.0,25.0,-100.00,ESE,104,10.0,13.0,26,0.00,,,-99.99,,2013-06-13 11:23:00,
2013-06-13 05:32:00,59.0,24.0,-100.00,ESE,107,9.0,12.0,26,0.00,,,-99.99,,2013-06-13 11:32:00,
2013-06-13 05:42:00,59.0,24.0,-100.00,ESE,113,8.0,12.0,26,0.00,,,-99.99,,2013-06-13 11:42:00,
2013-06-13 05:52:00,60.0,24.0,-100.00,ESE,109,11.0,13.0,25,0.00,,,-99.99,,2013-06-13 11:52:00,
2013-06-13 06:01:00,59.0,24.0,-100.00,ESE,110,11.0,13.0,25,0.00,,,-99.99,,2013-06-13 12:01:00,
2013-06-13 06:11:00,65.0,22.0,-100.00,SSE,147,9.0,12.0,19,0.00,,,-99.99,,2013-06-13 12:11:00,
2013-06-13 06:22:00,66.0,22.0,-100.00,South,175,9.0,16.0,18,0.00,,,-99.99,,2013-06-13 12:22:00,
2013-06-13 06:42:00,61.0,23.0,-100.00,SE,133,12.0,17.0,23,0.00,,,-99.99,,2013-06-13 12:42:00,
2013-06-13 06:52:00,61.0,24.0,-100.00,ESE,107,14.0,18.0,24,0.00,,,-99.99,,2013-06-13 12:52:00,
2013-06-13 07:01:00,63.0,24.0,-100.00,ESE,110,14.0,19.0,23,0.00,,,-99.99,,2013-06-13 13:01:00,
2013-06-13 07:11:00,64.0,24.0,-100.00,ESE,104,16.0,21.0,22,0.00,,,-99.99,,2013-06-13 13:11:00,
2013-06-13 07:21:00,63.0,26.0,-100.00,ESE,110,13.0,20.0,24,0.00,,,-99.99,,2013-06-13 13:21:00,
2013-06-13 07:32:00,63.0,26.0,-100.00,ESE,117,14.0,20.0,24,0.00,,,-99.99,,2013-06-13 13:32:00,
2013-06-13 07:43:00,65.0,25.0,-100.00,ESE,110,16.0,24.0,22,0.00,,,-99.99,,2013-06-13 13:43:00,
2013-06-13 07:53:00,66.0,25.0,-100.00,ESE,117,12.0,19.0,20,0.00,,,-99.99,,2013-06-13 13:53:00,
2013-06-13 08:02:00,67.0,25.0,-100.00,ESE,119,11.0,17.0,20,0.00,,,-99.99,,2013-06-13 14:02:00,
2013-06-13 08:11:00,67.0,27.0,-100.00,ESE,110,11.0,16.0,22,0.00,,,-99.99,,2013-06-13 14:11:00,
2013-06-13 08:22:00,69.0,27.0,-100.00,SE,124,11.0,17.0,21,0.00,,,-99.99,,2013-06-13 14:22:00,
2013-06-13 08:33:00,68.0,28.0,-100.00,ESE,116,9.0,16.0,22,0.00,,,-99.99,,2013-06-13 14:33:00,
2013-06-13 08:43:00,68.0,29.0,-100.00,SE,130,6.0,10.0,22,0.00,,,-99.99,,2013-06-13 14:43:00,
2013-06-13 08:53:00,70.0,27.0,-100.00,SE,133,6.0,13.0,20,0.00,,,-99.99,,2013-06-13 14:53:00,
2013-06-13 09:01:00,71.0,27.0,-100.00,SE,136,4.0,13.0,20,0.00,,,-99.99,,2013-06-13 15:01:00,
2013-06-13 09:12:00,71.0,27.0,-100.00,SSE,154,7.0,13.0,19,0.00,,,-99.99,,2013-06-13 15:12:00,
2013-06-13 09:22:00,71.0,27.0,-100.00,SW,226,5.0,9.0,19,0.00,,,-99.99,,2013-06-13 15:22:00,
2013-06-13 09:33:00,72.0,29.0,-100.00,SSW,203,6.0,12.0,21,0.00,,,-99.99,,2013-06-13 15:33:00,
2013-06-13 09:43:00,71.0,29.0,-100.00,SW,216,7.0,18.0,21,0.00,,,-99.99,,2013-06-13 15:43:00,
2013-06-13 09:53:00,71.0,29.0,-100.00,SW,216,12.0,22.0,21,0.00,,,-99.99,,2013-06-13 15:53:00,
2013-06-13 10:01:00,71.0,31.0,-100.00,SSW,213,9.0,13.0,22,0.00,,,-99.99,,2013-06-13 16:01:00,
2013-06-13 10:12:00,71.0,33.0,-100.00,SSW,200,6.0,11.0,24,0.00,,,-99.99,,2013-06-13 16:12:00,
2013-06-13 10:22:00,71.0,29.0,-100.00,SSW,212,10.0,17.0,21,0.00,,,-99.99,,2013-06-13 16:22:00,
2013-06-13 10:33:00,71.0,30.0,-100.00,SW,223,11.0,16.0,22,0.00,,,-99.99,,2013-06-13 16:33:00,
2013-06-13 10:43:00,71.0,29.0,-100.00,SW,229,9.0,13.0,21,0.00,,,-99.99,,2013-06-13 16:43:00,
2013-06-13 10:53:00,72.0,27.0,-100.00,SSW,212,6.0,11.0,19,0.00,,,-99.99,,2013-06-13 16:53:00,
2013-06-13 11:02:00,72.0,27.0,-100.00,SSW,209,5.0,9.0,19,0.00,,,-99.99,,2013-06-13 17:02:00,
2013-06-13 11:11:00,72.0,28.0,-100.00,South,189,5.0,9.0,19,0.00,,,-99.99,,2013-06-13 17:11:00,
2013-06-13 11:24:00,73.0,28.0,-100.00,South,179,5.0,9.0,19,0.00,,,-99.99,,2013-06-13 17:24:00,
2013-06-13 11:32:00,73.0,29.0,-100.00,SSE,161,6.0,13.0,19,0.00,,,-99.99,,2013-06-13 17:32:00,
2013-06-13 11:43:00,74.0,29.0,-100.00,South,175,7.0,14.0,20,0.00,,,-99.99,,2013-06-13 17:43:00,
2013-06-13 11:53:00,74.0,29.0,-100.00,SSW,193,10.0,18.0,19,0.00,,,-99.99,,2013-06-13 17:53:00,
2013-06-13 12:02:00,73.0,29.0,-100.00,South,189,11.0,17.0,20,0.00,,,-99.99,,2013-06-13 18:02:00,
2013-06-13 12:11:00,73.0,31.0,-100.00,SW,222,8.0,14.0,21,0.00,,,-99.99,,2013-06-13 18:11:00,
2013-06-13 12:33:00,74.0,31.0,-100.00,South,182,9.0,16.0,20,0.00,,,-99.99,,2013-06-13 18:33:00,
2013-06-13 12:43:00,73.0,29.0,-100.00,SSW,202,7.0,12.0,19,0.00,,,-99.99,,2013-06-13 18:43:00,
2013-06-13 12:52:00,74.0,31.0,-100.00,West,270,4.0,7.0,20,0.00,,,-99.99,,2013-06-13 18:52:00,
2013-06-13 13:01:00,75.0,30.0,-100.00,SSW,196,2.0,9.0,19,0.00,,,-99.99,,2013-06-13 19:01:00,
2013-06-13 13:11:00,74.0,29.0,-100.00,ESE,114,6.0,15.0,19,0.00,,,-99.99,,2013-06-13 19:11:00,
2013-06-13 13:22:00,75.0,29.0,-100.00,SSE,148,6.0,13.0,18,0.00,,,-99.99,,2013-06-13 19:22:00,
2013-06-13 13:33:00,76.0,28.0,-100.00,SSE,154,10.0,24.0,17,0.00,,,-99.99,,2013-06-13 19:33:00,
2013-06-13 13:43:00,75.0,27.0,-100.00,SSE,155,14.0,24.0,17,0.00,,,-99.99,,2013-06-13 19:43:00,
2013-06-13 13:53:00,77.0,28.0,-100.00,SE,141,11.0,26.0,16,0.00,,,-99.99,,2013-06-13 19:53:00,
2013-06-13 14:01:00,78.0,28.0,-100.00,SSE,157,21.0,28.0,16,0.00,,,-99.99,,2013-06-13 20:01:00,
2013-06-13 14:11:00,77.0,27.0,-100.00,SSE,157,20.0,29.0,16,0.00,,,-99.99,,2013-06-13 20:11:00,
2013-06-13 14:22:00,78.0,27.0,-100.00,SSE,164,14.0,20.0,15,0.00,,,-99.99,,2013-06-13 20:22:00,
2013-06-13 14:32:00,80.0,26.0,-100.00,SSE,164,19.0,28.0,14,0.00,,,-99.99,,2013-06-13 20:32:00,
2013-06-13 14:43:00,79.0,27.0,-100.00,SSE,167,18.0,24.0,15,0.00,,,-99.99,,2013-06-13 20:43:00,
2013-06-13 14:53:00,79.0,26.0,-100.00,South,174,20.0,30.0,15,0.00,,,-99.99,,2013-06-13 20:53:00,
2013-06-13 15:02:00,78.0,26.0,-100.00,SSE,167,17.0,28.0,14,0.00,,,-99.99,,2013-06-13 21:02:00,
2013-06-13 15:11:00,79.0,27.0,-100.00,South,176,17.0,26.0,14,0.00,,,-99.99,,2013-06-13 21:11:00,
2013-06-13 15:22:00,81.0,26.0,-100.00,SSE,161,21.0,37.0,13,0.00,,,-99.99,,2013-06-13 21:22:00,
2013-06-13 15:34:00,79.0,26.0,-100.00,South,169,20.0,35.0,14,0.00,,,-99.99,,2013-06-13 21:34:00,
2013-06-13 15:43:00,79.0,26.0,-100.00,South,172,21.0,37.0,14,0.00,,,-99.99,,2013-06-13 21:43:00,
2013-06-13 15:52:00,80.0,27.0,-100.00,SSE,167,26.0,35.0,14,0.00,,,-99.99,,2013-06-13 21:52:00,
2013-06-13 16:02:00,80.0,27.0,-100.00,SSE,165,25.0,38.0,14,0.00,,,-99.99,,2013-06-13 22:02:00,
2013-06-13 16:11:00,80.0,27.0,-100.00,South,171,24.0,34.0,14,0.00,,,-99.99,,2013-06-13 22:11:00,
2013-06-13 16:22:00,80.0,24.0,-100.00,SSW,193,19.0,28.0,13,0.00,,,-99.99,,2013-06-13 22:22:00,
2013-06-13 16:32:00,79.0,26.0,-100.00,SSW,193,26.0,35.0,14,0.00,,,-99.99,,2013-06-13 22:32:00,
2013-06-13 16:42:00,80.0,26.0,-100.00,South,191,23.0,35.0,14,0.00,,,-99.99,,2013-06-13 22:42:00,
2013-06-13 16:52:00,79.0,25.0,-100.00,SSE,167,21.0,31.0,14,0.00,,,-99.99,,2013-06-13 22:52:00,
2013-06-13 17:02:00,78.0,26.0,-100.00,SSE,162,20.0,31.0,14,0.00,,,-99.99,,2013-06-13 23:02:00,
2013-06-13 17:11:00,80.0,27.0,-100.00,SSE,168,21.0,36.0,14,0.00,,,-99.99,,2013-06-13 23:11:00,
2013-06-13 17:22:00,78.0,25.0,-100.00,South,172,22.0,31.0,14,0.00,,,-99.99,,2013-06-13 23:22:00,
2013-06-13 17:32:00,79.0,26.0,-100.00,South,171,21.0,28.0,14,0.00,,,-99.99,,2013-06-13 23:32:00,
2013-06-13 17:43:00,79.0,27.0,-100.00,South,171,21.0,29.0,14,0.00,,,-99.99,,2013-06-13 23:43:00,
2013-06-13 17:52:00,79.0,26.0,-100.00,South,181,21.0,29.0,14,0.00,,,-99.99,,2013-06-13 23:52:00,
2013-06-13 18:01:00,78.0,25.0,-100.00,SSE,161,24.0,34.0,14,0.00,,,-99.99,,2013-06-14 00:01:00,
2013-06-13 18:11:00,78.0,25.0,-100.00,South,171,22.0,30.0,14,0.00,,,-99.99,,2013-06-14 00:11:00,
2013-06-13 18:22:00,78.0,26.0,-100.00,South,171,17.0,32.0,14,0.00,,,-99.99,,2013-06-14 00:22:00,
2013-06-13 18:34:00,78.0,26.0,-100.00,South,176,10.0,17.0,15,0.00,,,-99.99,,2013-06-14 00:34:00,
2013-06-13 18:43:00,78.0,26.0,-100.00,South,184,9.0,15.0,15,0.00,,,-99.99,,2013-06-14 00:43:00,
2013-06-13 18:53:00,78.0,26.0,-100.00,South,175,17.0,26.0,14,0.00,,,-99.99,,2013-06-14 00:53:00,
2013-06-13 19:01:00,77.0,25.0,-100.00,South,171,17.0,27.0,14,0.00,,,-99.99,,2013-06-14 01:01:00,
2013-06-13 19:11:00,77.0,27.0,-100.00,SSE,168,16.0,24.0,16,0.00,,,-99.99,,2013-06-14 01:11:00,
2013-06-13 19:22:00,76.0,25.0,-100.00,SSE,168,17.0,26.0,15,0.00,,,-99.99,,2013-06-14 01:22:00,
2013-06-13 19:32:00,76.0,25.0,-100.00,SSE,168,17.0,26.0,15,0.00,,,-99.99,,2013-06-14 01:32:00,
2013-06-13 19:43:00,76.0,25.0,-100.00,South,171,16.0,21.0,15,0.00,,,-99.99,,2013-06-14 01:43:00,
2013-06-13 19:52:00,76.0,26.0,-100.00,South,172,12.0,18.0,16,0.00,,,-99.99,,2013-06-14 01:52:00,
2013-06-13 20:02:00,75.0,26.0,-100.00,South,175,11.0,18.0,16,0.00,,,-99.99,,2013-06-14 02:02:00,
2013-06-13 20:11:00,75.0,27.0,-100.00,South,184,9.0,17.0,17,0.00,,,-99.99,,2013-06-14 02:11:00,
2013-06-13 20:22:00,74.0,26.0,-100.00,South,172,9.0,13.0,17,0.00,,,-99.99,,2013-06-14 02:22:00,
2013-06-13 20:32:00,74.0,26.0,-100.00,SSE,168,11.0,16.0,16,0.00,,,-99.99,,2013-06-14 02:32:00,
2013-06-13 20:43:00,74.0,25.0,-100.00,SSE,167,11.0,19.0,16,0.00,,,-99.99,,2013-06-14 02:43:00,
2013-06-13 20:52:00,73.0,25.0,-100.00,South,169,11.0,20.0,16,0.00,,,-99.99,,2013-06-14 02:52:00,
2013-06-13 21:02:00,72.0,26.0,-100.00,SSE,168,7.0,11.0,17,0.00,,,-99.99,,2013-06-14 03:02:00,
2013-06-13 21:11:00,73.0,25.0,-100.00,SSE,168,10.0,19.0,16,0.00,,,-99.99,,2013-06-14 03:11:00,
2013-06-13 21:22:00,72.0,26.0,-100.00,SSE,152,11.0,18.0,17,0.00,,,-99.99,,2013-06-14 03:22:00,
2013-06-13 21:34:00,73.0,25.0,-100.00,SSE,152,11.0,18.0,17,0.00,,,-99.99,,2013-06-14 03:34:00,
2013-06-13 21:43:00,72.0,25.0,-100.00,SSE,165,11.0,21.0,17,0.00,,,-99.99,,2013-06-14 03:43:00,
2013-06-13 21:52:00,71.0,26.0,-100.00,SSE,165,12.0,20.0,18,0.00,,,-99.99,,2013-06-14 03:52:00,
2013-06-13 22:01:00,72.0,26.0,-100.00,SSE,168,17.0,27.0,17,0.00,,,-99.99,,2013-06-14 04:01:00,
2013-06-13 22:22:00,71.0,26.0,-100.00,SSE,148,16.0,26.0,18,0.00,,,-99.99,,2013-06-14 04:22:00,
2013-06-13 22:33:00,71.0,26.0,-100.00,SSE,147,15.0,22.0,19,0.00,,,-99.99,,2013-06-14 04:33:00,
2013-06-13 22:43:00,70.0,26.0,-100.00,SE,145,14.0,22.0,19,0.00,,,-99.99,,2013-06-14 04:43:00,
2013-06-13 22:53:00,70.0,26.0,-100.00,SE,140,16.0,22.0,19,0.00,,,-99.99,,2013-06-14 04:53:00,
2013-06-13 23:02:00,70.0,26.0,-100.00,SE,140,16.0,21.0,19,0.00,,,-99.99,,2013-06-14 05:02:00,
2013-06-13 23:11:00,69.0,27.0,-100.00,SE,140,14.0,21.0,20,0.00,,,-99.99,,2013-06-14 05:11:00,
2013-06-13 23:22:00,68.0,27.0,-100.00,SE,136,12.0,17.0,21,0.00,,,-99.99,,2013-06-14 05:22:00,
2013-06-13 23:33:00,67.0,28.0,-100.00,ESE,120,13.0,19.0,23,0.00,,,-99.99,,2013-06-14 05:33:00,
2013-06-13 23:43:00,66.0,28.0,-100.00,ESE,117,13.0,19.0,23,0.00,,,-99.99,,2013-06-14 05:43:00,
2013-06-13 23:52:00,65.0,28.0,-100.00,ESE,117,13.0,16.0,24,0.00,,,-99.99,,2013-06-14 05:52:00,